FW2664 Weather Reports


Display with metric or nautical units.
time (UTC)temp
F
wind
direction
speed
MPH
gust
MPH
rain 1hr
in
rain 24hr
in
rain mn
in
humidity
%
barometer
mb
20260509105158 57 88 0.0 3.0 0.00 0.00 0.00 84 1008.4
20260509104655 57 80 3.0 5.0 0.00 0.00 0.00 84 1008.2
20260509104152 57 70 2.0 4.0 0.00 0.00 0.00 84 1008.1
20260509103650 57 83 1.0 2.0 0.00 0.00 0.00 84 1008.3
20260509103148 57 115 1.0 4.0 0.00 0.00 0.00 83 1008.3
20260509102645 57 82 2.0 3.0 0.00 0.00 0.00 83 1008.1
20260509102142 57 86 2.0 4.0 0.00 0.00 0.00 82 1008.2
20260509101638 57 105 2.0 5.0 0.00 0.00 0.00 82 1008.1
20260509101135 57 125 2.0 4.0 0.00 0.00 0.00 82 1008.4
20260509100632 57 108 2.0 3.0 0.00 0.00 0.00 82 1008.5
20260509100130 57 94 2.0 3.0 0.00 0.00 0.00 82 1008.7
20260509095626 57 120 3.0 4.0 0.00 0.00 0.00 82 1008.7
20260509095124 57 88 2.0 3.0 0.00 0.00 0.00 82 1008.8
20260509094619 57 130 1.0 3.0 0.00 0.00 0.00 81 1008.8
20260509094117 57 93 1.0 2.0 0.00 0.00 0.00 81 1008.7
20260509093615 58 59 2.0 2.0 0.00 0.00 0.00 80 1008.9
20260509093112 58 94 2.0 3.0 0.00 0.00 0.00 79 1008.9
20260509092610 58 86 1.0 1.0 0.00 0.00 0.00 80 1009.1
20260509092108 58 45 2.0 2.0 0.00 0.00 0.00 79 1008.8
20260509091606 59 88 2.0 2.0 0.00 0.00 0.00 78 1008.8
20260509091102 59 67 2.0 2.0 0.00 0.00 0.00 79 1008.9
20260509090559 59 94 2.0 2.0 0.00 0.00 0.00 78 1008.9
20260509090057 59 104 2.0 4.0 0.00 0.00 0.00 78 1008.8
20260509085554 58 80 2.0 3.0 0.00 0.00 0.00 78 1008.9
20260509085050 59 95 0.0 2.0 0.00 0.00 0.00 78 1008.7
20260509084547 59 82 3.0 3.0 0.00 0.00 0.00 77 1008.6
20260509084044 59 131 0.0 4.0 0.00 0.00 0.00 77 1009.0
20260509083542 59 75 2.0 2.0 0.00 0.00 0.00 78 1009.1
20260509083038 59 107 1.0 3.0 0.00 0.00 0.00 77 1009.0
20260509082536 59 89 2.0 2.0 0.00 0.00 0.00 77 1008.9
20260509082033 59 106 3.0 4.0 0.00 0.00 0.00 77 1008.9
20260509081530 59 60 0.0 2.0 0.00 0.00 0.00 77 1009.1
20260509081026 59 65 0.0 2.0 0.00 0.00 0.00 77 1008.7
20260509080525 59 87 1.0 3.0 0.00 0.00 0.00 77 1008.8
20260509080022 59 84 1.0 3.0 0.00 0.00 0.00 77 1008.9
20260509075519 59 121 4.0 4.0 0.00 0.00 0.00 77 1008.7
20260509075017 59 97 2.0 2.0 0.00 0.00 0.00 78 1008.8
20260509074514 59 87 1.0 3.0 0.00 0.00 0.00 78 1008.7
20260509074011 59 75 2.0 2.0 0.00 0.00 0.00 78 1008.8
20260509073507 59 81 2.0 3.0 0.00 0.00 0.00 77 1008.8
20260509073004 59 50 1.0 2.0 0.00 0.00 0.00 77 1008.9
20260509072500 59 97 2.0 4.0 0.00 0.00 0.00 76 1008.7
20260509071957 59 87 1.0 2.0 0.00 0.00 0.00 76 1008.6
20260509071453 59 88 1.0 2.0 0.00 0.00 0.00 76 1008.5
20260509070952 59 93 1.0 3.0 0.00 0.00 0.00 76 1008.7
20260509070448 59 94 1.0 2.0 0.00 0.00 0.00 76 1008.8
20260509065943 59 99 2.0 2.0 0.00 0.00 0.00 76 1008.6
20260509065440 59 69 2.0 3.0 0.00 0.00 0.00 75 1008.8
20260509064936 59 93 2.0 2.0 0.00 0.00 0.00 75 1009.2
20260509064434 59 86 2.0 2.0 0.00 0.00 0.00 75 1008.9
20260509063932 59 103 4.0 4.0 0.00 0.00 0.00 75 1009.0
20260509063427 59 89 1.0 2.0 0.00 0.00 0.00 75 1009.0
20260509062924 59 102 1.0 2.0 0.00 0.00 0.00 76 1009.2
20260509062422 59 103 1.0 2.0 0.00 0.00 0.00 75 1009.4
20260509061919 59 112 1.0 6.0 0.00 0.00 0.00 75 1009.3
20260509061417 59 88 1.0 2.0 0.00 0.00 0.00 75 1009.2
20260509060913 59 102 0.0 2.0 0.00 0.00 0.00 74 1009.4
20260509060411 59 66 0.0 2.0 0.00 0.00 0.00 73 1009.6
20260509055905 59 84 2.0 3.0 0.00 0.00 0.00 71 1009.5
20260509055401 60 78 2.0 2.0 0.00 0.00 0.00 71 1009.6
20260509054858 60 88 2.0 2.0 0.00 0.00 0.00 70 1009.6
20260509054355 60 151 2.0 4.0 0.00 0.00 0.00 69 1009.6
20260509053853 60 95 2.0 4.0 0.00 0.00 0.00 69 1009.8
20260509053350 60 98 2.0 2.0 0.00 0.00 0.00 68 1009.8
20260509052848 61 77 2.0 3.0 0.00 0.00 0.00 68 1009.9
20260509052345 60 120 2.0 7.0 0.00 0.00 0.00 67 1009.5
20260509051843 61 39 2.0 3.0 0.00 0.00 0.00 67 1009.6
20260509051341 61 96 2.0 2.0 0.00 0.00 0.00 67 1009.6
20260509050837 61 117 3.0 4.0 0.00 0.00 0.00 66 1009.9
20260509050334 61 52 2.0 3.0 0.00 0.00 0.00 66 1009.8
20260509045831 61 26 0.0 2.0 0.00 0.00 0.00 65 1009.6
20260509045328 61 107 4.0 4.0 0.00 0.00 0.00 65 1009.6
20260509044825 61 89 0.0 3.0 0.00 0.00 0.00 65 1009.7
20260509044323 61 94 1.0 3.0 0.00 0.00 0.00 64 1009.6
20260509043819 61 115 1.0 2.0 0.00 0.00 0.00 63 1009.4
20260509043315 61 88 2.0 2.0 0.00 0.00 0.00 63 1009.6
20260509042811 61 82 2.0 3.0 0.00 0.00 0.00 62 1009.6
20260509042308 62 97 2.0 2.0 0.00 0.00 0.00 61 1009.6
20260509041804 61 109 2.0 4.0 0.00 0.00 0.00 61 1009.6
20260509041302 61 89 1.0 2.0 0.00 0.00 0.00 62 1009.6
20260509040800 61 85 2.0 3.0 0.00 0.00 0.00 61 1009.9
20260509040257 62 79 2.0 3.0 0.00 0.00 0.00 60 1009.6
20260509035754 62 94 2.0 3.0 0.00 0.00 0.00 60 1009.7
20260509035251 62 79 2.0 3.0 0.00 0.00 0.00 59 1009.6
20260509034747 62 86 2.0 4.0 0.00 0.00 0.00 58 1009.7
20260509034245 63 37 2.0 2.0 0.00 0.00 0.00 58 1009.8
20260509033742 63 87 1.0 2.0 0.00 0.00 0.00 57 1009.8
20260509033239 63 93 2.0 2.0 0.00 0.00 0.00 57 1009.8
20260509032736 64 64 2.0 2.0 0.00 0.00 0.00 56 1009.8
20260509032233 64 104 1.0 3.0 0.00 0.00 0.00 55 1009.9
20260509031730 64 89 2.0 4.0 0.00 0.00 0.00 54 1009.8
20260509031228 64 93 1.0 2.0 0.00 0.00 0.00 55 1009.9
20260509030726 64 103 1.0 2.0 0.00 0.00 0.00 54 1009.9
20260509030223 65 94 2.0 4.0 0.00 0.00 0.00 53 1009.7
20260509025719 65 117 1.0 3.0 0.00 0.00 0.00 52 1009.7
20260509025215 65 134 0.0 4.0 0.00 0.00 0.00 52 1009.9
20260509024710 65 121 2.0 4.0 0.00 0.00 0.00 51 1009.7
20260509024206 66 108 2.0 6.0 0.00 0.00 0.00 51 1009.7
20260509023704 66 107 2.0 5.0 0.00 0.00 0.00 51 1009.7
20260509023201 66 100 2.0 5.0 0.00 0.00 0.00 50 1009.8
20260509022657 66 92 2.0 4.0 0.00 0.00 0.00 49 1009.7
20260509022155 66 122 2.0 5.0 0.00 0.00 0.00 49 1009.8
20260509021652 66 99 0.0 3.0 0.00 0.00 0.00 50 1009.9
20260509021149 67 107 2.0 5.0 0.00 0.00 0.00 48 1009.8
20260509020648 67 143 2.0 4.0 0.00 0.00 0.00 48 1009.8
20260509020144 67 142 2.0 6.0 0.00 0.00 0.00 48 1009.8
20260509015643 67 184 2.0 4.0 0.00 0.00 0.00 47 1009.7
20260509015140 67 100 5.0 8.0 0.00 0.00 0.00 47 1009.7
20260509014636 67 143 3.0 4.0 0.00 0.00 0.00 47 1009.6
20260509014133 66 151 2.0 5.0 0.00 0.00 0.00 48 1009.5
20260509013630 66 92 2.0 2.0 0.00 0.00 0.00 48 1009.7
20260509013125 66 83 2.0 2.0 0.00 0.00 0.00 48 1009.7
20260509012622 66 72 2.0 5.0 0.00 0.00 0.00 47 1009.5
20260509012119 66 95 2.0 3.0 0.00 0.00 0.00 48 1009.5
20260509011617 65 118 3.0 4.0 0.00 0.00 0.00 48 1009.5
20260509011114 65 64 3.0 3.0 0.00 0.00 0.00 50 1009.5
20260509010612 65 83 2.0 3.0 0.00 0.00 0.00 49 1009.5
20260509010108 66 86 2.0 3.0 0.00 0.00 0.00 48 1009.5
20260509005606 66 92 2.0 3.0 0.00 0.00 0.00 47 1009.7
20260509005101 67 88 2.0 3.0 0.00 0.00 0.00 46 1009.3
20260509004558 68 66 2.0 2.0 0.00 0.00 0.00 42 1009.7
20260509004055 68 89 0.0 2.0 0.00 0.00 0.00 42 1009.6
20260509003553 69 77 2.0 2.0 0.00 0.00 0.00 40 1009.5
20260509003050 69 108 2.0 3.0 0.00 0.00 0.00 41 1009.6
20260509002548 70 84 2.0 3.0 0.00 0.00 0.00 39 1009.7
20260509002045 71 106 3.0 3.0 0.00 0.00 0.00 37 1009.6
20260509001542 71 92 2.0 3.0 0.00 0.00 0.00 38 1009.5
20260509001038 72 107 3.0 4.0 0.00 0.00 0.00 37 1009.8
20260509000537 72 111 3.0 4.0 0.00 0.00 0.00 36 1009.7
20260509000032 72 79 0.0 2.0 0.00 0.00 0.00 36 1009.6
20260508235530 73 112 2.0 4.0 0.00 0.00 0.00 35 1009.6
20260508235026 73 172 3.0 7.0 0.00 0.00 0.00 35 1009.6
20260508234524 73 144 1.0 4.0 0.00 0.00 0.00 34 1009.7
20260508234021 74 105 3.0 9.0 0.00 0.00 0.00 34 1009.7
20260508233520 75 108 2.0 4.0 0.00 0.00 0.00 34 1009.8
20260508233017 75 123 1.0 6.0 0.00 0.00 0.00 31 1009.9
20260508232514 75 71 2.0 4.0 0.00 0.00 0.00 31 1009.9
20260508232011 75 114 2.0 4.0 0.00 0.00 0.00 30 1010.0
20260508231508 76 193 0.0 4.0 0.00 0.00 0.00 31 1010.0
20260508231005 76 89 3.0 6.0 0.00 0.00 0.00 31 1009.9
20260508230502 76 128 4.0 5.0 0.00 0.00 0.00 29 1009.9
20260508225959 76 182 2.0 2.0 0.00 0.00 0.00 31 1009.9
20260508225456 75 118 1.0 4.0 0.00 0.00 0.00 29 1010.0
20260508224953 75 80 2.0 5.0 0.00 0.00 0.00 30 1010.0
20260508224450 75 123 4.0 4.0 0.00 0.00 0.00 30 1010.0
20260508223948 75 150 4.0 5.0 0.00 0.00 0.00 29 1010.1
20260508223445 76 144 1.0 4.0 0.00 0.00 0.00 29 1010.1
20260508222942 77 95 1.0 4.0 0.00 0.00 0.00 31 1010.2
20260508222440 77 17 2.0 4.0 0.00 0.00 0.00 29 1010.0
20260508221936 77 92 3.0 4.0 0.00 0.00 0.00 30 1010.3
20260508221432 77 125 4.0 4.0 0.00 0.00 0.00 28 1010.1
20260508220929 76 114 3.0 3.0 0.00 0.00 0.00 30 1010.3
20260508220425 77 134 0.0 7.0 0.00 0.00 0.00 29 1010.3
20260508215921 78 317 2.0 3.0 0.00 0.00 0.00 28 1010.3
20260508215419 77 121 1.0 3.0 0.00 0.00 0.00 29 1010.5
20260508214915 76 167 3.0 6.0 0.00 0.00 0.00 29 1010.2
20260508214413 76 128 4.0 5.0 0.00 0.00 0.00 28 1010.5
20260508213908 77 204 2.0 4.0 0.00 0.00 0.00 30 1010.5
20260508213406 77 286 0.0 6.0 0.00 0.00 0.00 30 1010.6
20260508212902 77 180 0.0 7.0 0.00 0.00 0.00 29 1010.3
20260508212358 78 156 1.0 8.0 0.00 0.00 0.00 30 1010.5
20260508211854 78 118 1.0 2.0 0.00 0.00 0.00 30 1010.3
20260508211350 77 125 3.0 4.0 0.00 0.00 0.00 30 1010.3
20260508210848 77 80 2.0 4.0 0.00 0.00 0.00 29 1010.7
20260508210344 77 138 2.0 5.0 0.00 0.00 0.00 31 1010.6
20260508205841 77 30 0.0 5.0 0.00 0.00 0.00 30 1010.7
20260508205337 78 128 5.0 6.0 0.00 0.00 0.00 30 1010.9
20260508204833 78 94 1.0 2.0 0.00 0.00 0.00 32 1010.9
20260508204331 77 334 0.0 2.0 0.00 0.00 0.00 33 1010.8
20260508203827 76 284 0.0 2.0 0.00 0.00 0.00 34 1010.9
20260508203323 75 214 1.0 3.0 0.00 0.00 0.00 33 1011.1
20260508202818 74 131 3.0 4.0 0.00 0.00 0.00 33 1010.9
20260508202317 74 128 6.0 6.0 0.00 0.00 0.00 32 1011.1
20260508201814 76 114 4.0 8.0 0.00 0.00 0.00 30 1011.1
20260508201310 76 37 0.0 3.0 0.00 0.00 0.00 31 1010.9
20260508200807 76 155 2.0 4.0 0.00 0.00 0.00 29 1011.4
20260508200303 77 94 2.0 3.0 0.00 0.00 0.00 31 1011.5
20260508195759 76 106 2.0 5.0 0.00 0.00 0.00 28 1011.4
20260508195256 77 320 0.0 2.0 0.00 0.00 0.00 33 1011.5
20260508194752 76 139 0.0 2.0 0.00 0.00 0.00 31 1011.8
20260508194250 74 358 1.0 3.0 0.00 0.00 0.00 29 1011.7
20260508193747 75 135 2.0 11.0 0.00 0.00 0.00 29 1012.0
20260508193243 75 102 0.0 4.0 0.00 0.00 0.00 29 1012.0
20260508192739 75 261 2.0 2.0 0.00 0.00 0.00 32 1012.0
20260508192237 74 55 3.0 6.0 0.00 0.00 0.00 31 1012.2
20260508191734 74 112 2.0 5.0 0.00 0.00 0.00 32 1012.2
20260508191231 74 279 1.0 2.0 0.00 0.00 0.00 34 1012.4
20260508190728 73 113 3.0 7.0 0.00 0.00 0.00 30 1012.6
20260508190224 74 50 2.0 3.0 0.00 0.00 0.00 34 1012.5
20260508185721 73 5 0.0 2.0 0.00 0.00 0.00 30 1012.5
20260508185218 73 49 4.0 8.0 0.00 0.00 0.00 32 1012.6
20260508184715 73 130 4.0 9.0 0.00 0.00 0.00 28 1012.5
20260508184213 73 111 3.0 4.0 0.00 0.00 0.00 29 1012.6
20260508183709 73 129 0.0 4.0 0.00 0.00 0.00 30 1013.0
20260508183205 73 141 2.0 6.0 0.00 0.00 0.00 28 1013.1
20260508182701 73 226 0.0 6.0 0.00 0.00 0.00 35 1013.3
20260508182158 73 123 2.0 4.0 0.00 0.00 0.00 33 1013.5
20260508181654 72 111 2.0 9.0 0.00 0.00 0.00 38 1013.5
20260508181151 72 131 5.0 6.0 0.00 0.00 0.00 30 1013.5
20260508180648 72 140 3.0 5.0 0.00 0.00 0.00 30 1013.4
20260508180145 72 121 6.0 6.0 0.00 0.00 0.00 32 1013.6
20260508175642 72 62 5.0 5.0 0.00 0.00 0.00 31 1013.7
20260508175138 71 180 2.0 5.0 0.00 0.00 0.00 34 1013.6
20260508174636 71 137 4.0 6.0 0.00 0.00 0.00 31 1013.7
20260508174132 71 88 1.0 7.0 0.00 0.00 0.00 38 1013.8
20260508173629 72 130 5.0 6.0 0.00 0.00 0.00 32 1013.9
20260508173125 71 142 2.0 4.0 0.00 0.00 0.00 32 1014.1
20260508172623 71 101 1.0 6.0 0.00 0.00 0.00 31 1014.1
20260508172119 71 208 3.0 4.0 0.00 0.00 0.00 32 1014.3
20260508171616 70 30 1.0 5.0 0.00 0.00 0.00 33 1014.4
20260508171112 70 126 3.0 5.0 0.00 0.00 0.00 34 1014.5
20260508170610 71 121 3.0 4.0 0.00 0.00 0.00 32 1014.5
20260508170107 70 137 4.0 7.0 0.00 0.00 0.00 33 1014.4
20260508165604 71 134 5.0 6.0 0.00 0.00 0.00 36 1014.6
20260508165101 69 137 1.0 4.0 0.00 0.00 0.00 33 1014.7
20260508164557 70 108 2.0 6.0 0.00 0.00 0.00 34 1014.9
20260508164054 71 68 3.0 6.0 0.00 0.00 0.00 39 1014.9
20260508163551 70 234 0.0 6.0 0.00 0.00 0.00 37 1015.1
20260508163048 70 39 3.0 9.0 0.00 0.00 0.00 35 1015.0
20260508162545 70 114 2.0 2.0 0.00 0.00 0.00 38 1015.1
20260508162042 69 121 1.0 5.0 0.00 0.00 0.00 37 1015.3
20260508161539 69 202 2.0 6.0 0.00 0.00 0.00 40 1015.5
20260508161036 69 111 2.0 6.0 0.00 0.00 0.00 35 1015.6
20260508160534 69 202 2.0 6.0 0.00 0.00 0.00 40 1015.6
20260508160031 68 89 1.0 4.0 0.00 0.00 0.00 37 1015.6
20260508155528 68 94 3.0 9.0 0.00 0.00 0.00 37 1015.8
20260508155025 69 131 4.0 5.0 0.00 0.00 0.00 38 1015.9
20260508154522 68 183 1.0 3.0 0.00 0.00 0.00 38 1015.7
20260508154019 68 114 5.0 5.0 0.00 0.00 0.00 38 1015.9
20260508153516 67 195 2.0 7.0 0.00 0.00 0.00 38 1015.8
20260508153012 67 122 2.0 6.0 0.00 0.00 0.00 37 1015.9
20260508152509 67 168 2.0 5.0 0.00 0.00 0.00 38 1015.9
20260508152005 66 50 4.0 5.0 0.00 0.00 0.00 42 1016.1
20260508151502 66 51 2.0 6.0 0.00 0.00 0.00 42 1016.0
20260508150958 66 110 3.0 8.0 0.00 0.00 0.00 43 1016.2
20260508150455 66 121 4.0 8.0 0.00 0.00 0.00 45 1016.1
20260508145950 65 77 4.0 6.0 0.00 0.00 0.00 47 1016.3
20260508145448 65 132 2.0 6.0 0.00 0.00 0.00 46 1016.3
20260508144944 65 142 2.0 5.0 0.00 0.00 0.00 48 1016.2
20260508144442 64 35 6.0 6.0 0.00 0.00 0.00 47 1016.2
20260508143939 64 95 3.0 6.0 0.00 0.00 0.00 49 1016.5
20260508143437 64 121 5.0 7.0 0.00 0.00 0.00 48 1016.3
20260508142933 64 104 2.0 4.0 0.00 0.00 0.00 49 1016.4
20260508142431 64 110 2.0 2.0 0.00 0.00 0.00 49 1016.5
20260508141926 64 161 1.0 4.0 0.00 0.00 0.00 47 1016.6
20260508141423 64 107 4.0 5.0 0.00 0.00 0.00 49 1016.6
20260508140921 64 118 3.0 4.0 0.00 0.00 0.00 48 1016.7
20260508140418 64 59 3.0 6.0 0.00 0.00 0.00 52 1016.7
20260508135913 64 61 4.0 4.0 0.00 0.00 0.00 51 1016.8
20260508135410 62 105 3.0 4.0 0.00 0.00 0.00 52 1016.8
20260508134907 62 124 5.0 5.0 0.00 0.00 0.00 53 1016.9
20260508134403 61 118 2.0 4.0 0.00 0.00 0.00 56 1016.8
20260508133900 60 94 2.0 3.0 0.00 0.00 0.00 56 1016.9
20260508133358 61 102 3.0 4.0 0.00 0.00 0.00 57 1016.8
20260508132854 62 110 1.0 6.0 0.00 0.00 0.00 56 1016.7
20260508132353 61 39 1.0 5.0 0.00 0.00 0.00 57 1016.8
20260508131849 61 74 1.0 3.0 0.00 0.00 0.00 65 1016.6
20260508131344 60 120 2.0 3.0 0.00 0.00 0.00 68 1016.7
20260508130841 59 98 0.0 4.0 0.00 0.00 0.00 70 1016.7
20260508130338 58 37 2.0 2.0 0.00 0.00 0.00 74 1016.7
20260508125834 57 353 0.0 1.0 0.00 0.00 0.00 78 1016.6
20260508125330 56 290 0.0 2.0 0.00 0.00 0.00 80 1016.7
20260508124828 56 32 0.0 1.0 0.00 0.00 0.00 81 1016.6
20260508124325 55 64 2.0 2.0 0.00 0.00 0.00 82 1016.7
20260508123824 55 109 0.0 1.0 0.00 0.00 0.00 83 1016.7
20260508123322 55 310 0.0 1.0 0.00 0.00 0.00 82 1016.6
20260508122818 54 72 0.0 1.0 0.00 0.00 0.00 83 1016.7
20260508122314 54 71 0.0 2.0 0.00 0.00 0.00 83 1016.6
20260508121812 54 46 0.0 2.0 0.00 0.00 0.00 85 1016.4
20260508121310 53 63 0.0 0.0 0.00 0.00 0.00 85 1016.5
20260508120807 50 93 2.0 2.0 0.00 0.00 0.00 96 1016.5
20260508120305 50 93 2.0 2.0 0.00 0.00 0.00 96 1016.4
20260508115802 50 93 2.0 2.0 0.00 0.00 0.00 96 1016.3
20260508115259 50 93 2.0 2.0 0.00 0.00 0.00 96 1016.1
20260508114756 50 93 2.0 2.0 0.00 0.00 0.00 96 1016.2
20260508114253 50 93 2.0 2.0 0.00 0.00 0.00 96 1016.1
20260508113749 49 75 2.0 2.0 0.00 0.00 0.00 97 1016.1
20260508113248 46 74 2.0 3.0 0.00 0.00 0.00 97 1016.0
20260508112744 46 74 2.0 3.0 0.00 0.00 0.00 97 1016.0
20260508112241 46 74 2.0 3.0 0.00 0.00 0.00 97 1015.8
20260508111737 46 62 2.0 2.0 0.00 0.00 0.00 97 1015.8
20260508111235 46 62 2.0 2.0 0.00 0.00 0.00 97 1015.8
20260508110732 46 92 2.0 2.0 0.00 0.00 0.00 97 1015.8
20260508110230 46 78 2.0 2.0 0.00 0.00 0.00 97 1015.7
20260508105729 46 81 2.0 2.0 0.00 0.00 0.00 97 1015.5